Temp
19 20 20 20 21 21 21 22 22 23 23 24 24 24 25 25 25 26 27 27 28 28 28 27 27 26 27 29 29 30 35 34 33 33 32 31 31 28 28 26 24 25 25 22 20
19 19 20 20 21 21 21 22 22 23 23 23 24 24 24 24 25 25 27 28 28 28 27 27 28 28 30 31 31 34 35 34 34 34 33 31 31 29 29 27 24 23 22 20 20
19 19 20 20 21 21 21 22 22 23 23 23 24 24 24 24 24 28 28 28 28 28 27 28 29 30 32 32 32 34 34 33 32 32 32 31 30 30 30 30 26 23 21 20 20
19 19 19 20 21 21 22 22 23 23 23 23 23 23 23 24 29 27 28 28 28 28 28 28 29 31 33 34 33 33 32 32 31 31 32 32 30 28 28 26 24 22 22 21 21
19 19 19 20 20 21 22 23 23 23 23 23 23 23 23 23 26 26 27 28 28 28 28 29 31 32 34 33 33 33 32 31 31 31 31 31 29 27 25 24 23 22 22 22 22
19 19 20 20 21 21 22 22 23 23 23 23 23 22 22 26 26 27 27 28 28 28 28 29 31 32 33 33 34 32 31 31 31 31 31 31 29 28 24 24 23 23 23 22 22
19 19 20 20 21 21 22 22 23 23 23 23 22 22 21 27 26 26 27 28 27 28 29 29 30 31 33 33 32 31 31 31 31 31 31 31 30 28 25 24 24 24 23 23 22
19 19 20 20 21 21 22 22 23 23 23 23 22 22 26 26 25 26 25 26 26 27 29 28 29 31 33 31 32 33 33 31 32 31 30 30 29 27 26 26 25 24 24 23 22
19 19 20 20 21 21 22 22 23 22 22 23 22 22 28 26 25 25 26 27 27 27 27 29 30 32 31 33 33 33 32 33 31 31 32 32 30 28 27 27 26 25 24 24 23
19 19 20 21 21 22 22 23 22 22 22 22 22 22 25 28 26 25 25 27 28 28 29 30 32 33 34 34 32 32 33 33 32 32 31 32 30 29 27 28 27 26 26 25 24
18 19 20 21 21 22 22 23 22 20 21 26 27 27 27 27 26 27 26 28 29 30 32 31 33 32 33 34 34 34 33 33 33 33 32 32 30 30 28 28 28 28 26 26 25
18 20 20 21 21 22 21 22 22 21 24 25 24 24 25 28 28 27 27 29 30 31 32 31 31 34 34 33 33 33 33 33 32 31 32 31 30 30 29 29 28 28 27 26 26
17 19 19 21 21 22 22 21 22 22 24 27 25 26 27 27 29 28 28 30 31 32 31 32 33 33 32 32 32 33 33 33 32 30 32 30 30 28 29 28 28 27 27 26 26
17 18 19 21 22 21 22 22 21 22 26 29 28 28 27 28 30 29 29 30 32 32 32 33 32 32 32 33 33 33 33 33 32 30 31 31 31 29 30 28 28 27 26 26 25
17 18 18 19 21 21 22 22 22 21 27 31 30 28 29 30 30 29 29 30 32 32 32 32 32 32 33 33 33 32 32 32 32 31 31 30 30 32 30 29 29 28 28 26 26
17 17 19 19 22 22 22 22 21 26 27 29 29 30 30 31 31 29 29 29 31 32 32 33 33 34 34 33 33 31 31 31 32 32 30 32 31 32 32 30 31 29 28 26 26
18 18 18 18 21 21 22 22 26 27 30 30 30 31 31 31 31 31 30 30 31 30 31 32 32 33 33 31 31 32 32 30 30 30 30 30 30 31 33 31 31 31 28 27 25
18 18 20 20 21 21 21 26 24 29 30 30 31 31 31 32 32 32 31 31 33 33 33 32 30 32 34 34 32 32 33 32 28 30 31 29 30 31 31 30 30 30 29 27 25
18 19 20 21 22 21 22 25 27 29 29 29 30 30 31 31 32 32 32 32 33 33 32 33 32 34 34 33 34 32 31 34 31 31 30 32 31 31 31 30 28 28 28 28 25
17 18 18 20 20 21 24 24 27 28 28 29 29 31 30 31 30 31 32 33 33 33 34 33 32 33 32 32 31 33 34 31 32 29 28 31 30 31 31 31 31 29 28 28 25
17 18 19 20 20 21 25 27 27 28 27 28 29 30 31 32 31 32 32 33 33 33 34 34 32 31 31 31 33 31 32 32 32 31 30 30 31 32 31 32 31 30 28 27 26
14 22 19 19 23 24 26 27 25 28 27 28 29 30 30 32 31 32 32 33 32 33 31 33 32 31 31 32 32 34 33 32 31 29 31 30 30 33 32 32 31 30 28 27 26
14 18 18 17 24 25 26 25 26 27 28 28 29 30 30 31 30 32 32 33 31 32 32 33 31 31 31 31 30 31 32 33 33 33 30 29 31 31 31 30 30 30 29 27 26
13 21 20 19 20 23 25 26 26 25 27 26 28 29 30 30 30 31 31 30 29 31 27 30 32 31 31 31 33 31 32 32 32 31 31 31 30 32 31 30 30 29 27 27 25
14 18 14 22 22 22 22 24 25 26 25 25 28 28 28 29 30 30 32 30 29 26 29 31 30 31 32 33 33 32 32 31 31 32 30 31 30 31 30 30 29 28 28 26 24
13 14 15 18 17 20 17 23 24 24 24 26 26 26 27 28 29 30 31 31 31 29 30 30 30 30 31 31 32 31 32 32 31 32 30 30 29 31 29 28 28 28 27 26 24
8 9 11 15 19 21 21 20 21 21 22 22 23 25 27 25 21 23 24 25 27 29 30 29 30 29 30 30 30 29 31 31 31 30 30 29 30 30 29 28 28 27 27 25 25
Height
1535 1533 1530 1527 1524 1522 1519 1516 1513 1511 1509 1507 1506 1505 1506 1505 1504 1504 1504 1507 1508 1508 1509 1510 1510 1511 1512 1510 1508 1505 1492 1499 1503 1500 1511 1515 1518 1524 1527 1532 1536 1538 1539 1544 1552
1534 1531 1529 1526 1523 1520 1517 1514 1511 1508 1506 1504 1503 1502 1503 1502 1502 1500 1502 1504 1505 1507 1509 1511 1511 1511 1509 1508 1507 1499 1491 1499 1502 1501 1506 1513 1516 1523 1527 1531 1537 1539 1543 1547 1552
1533 1530 1527 1524 1521 1518 1514 1511 1507 1504 1502 1500 1499 1499 1500 1500 1501 1496 1497 1501 1504 1507 1509 1511 1511 1510 1505 1506 1505 1500 1499 1504 1508 1508 1511 1515 1519 1522 1523 1524 1533 1540 1544 1549 1554
1532 1529 1525 1522 1519 1516 1512 1507 1504 1500 1497 1495 1495 1495 1497 1499 1495 1491 1493 1498 1502 1506 1508 1509 1510 1507 1502 1501 1505 1504 1507 1508 1514 1514 1513 1515 1520 1527 1528 1533 1535 1542 1548 1552 1555
1530 1527 1523 1519 1517 1513 1509 1504 1500 1495 1492 1491 1491 1492 1494 1497 1493 1491 1492 1496 1500 1504 1507 1508 1507 1504 1500 1502 1503 1504 1511 1513 1515 1516 1518 1520 1524 1531 1536 1539 1542 1546 1550 1554 1557
1528 1525 1521 1517 1514 1511 1506 1502 1497 1493 1491 1489 1487 1489 1492 1493 1488 1489 1491 1494 1499 1503 1506 1507 1505 1505 1502 1503 1501 1508 1512 1515 1517 1519 1521 1522 1527 1529 1541 1542 1546 1549 1552 1554 1557
1525 1522 1519 1515 1511 1508 1504 1500 1496 1493 1491 1488 1486 1488 1491 1488 1487 1487 1490 1494 1499 1503 1505 1506 1506 1505 1502 1505 1508 1512 1514 1518 1518 1520 1521 1522 1528 1535 1542 1544 1547 1550 1553 1555 1558
1523 1519 1517 1513 1508 1505 1502 1498 1495 1492 1490 1490 1489 1490 1487 1486 1486 1487 1490 1494 1498 1502 1505 1505 1504 1505 1502 1507 1509 1508 1509 1518 1518 1520 1522 1521 1536 1538 1542 1543 1546 1550 1553 1556 1559
1520 1516 1513 1510 1506 1503 1499 1495 1492 1490 1489 1489 1490 1490 1484 1485 1486 1488 1491 1495 1498 1502 1504 1504 1505 1503 1505 1502 1507 1507 1513 1510 1518 1518 1518 1516 1529 1536 1540 1541 1544 1549 1552 1555 1558
1517 1513 1510 1508 1504 1500 1497 1493 1489 1487 1488 1488 1488 1491 1485 1485 1486 1488 1490 1495 1498 1501 1503 1504 1502 1499 1498 1499 1514 1512 1505 1508 1514 1514 1518 1517 1524 1532 1538 1538 1542 1545 1549 1553 1555
1513 1510 1507 1505 1501 1498 1496 1492 1492 1490 1486 1481 1481 1480 1480 1484 1486 1489 1491 1495 1497 1499 1496 1498 1497 1499 1496 1495 1490 1494 1502 1506 1506 1507 1515 1516 1524 1529 1533 1537 1538 1541 1547 1550 1553
1509 1506 1503 1502 1498 1496 1495 1494 1492 1494 1484 1478 1478 1479 1480 1481 1484 1488 1491 1493 1493 1493 1492 1499 1499 1489 1490 1494 1499 1498 1503 1504 1508 1511 1514 1518 1523 1527 1531 1532 1537 1539 1543 1546 1550
1506 1502 1499 1498 1495 1493 1492 1492 1489 1488 1484 1472 1472 1474 1476 1480 1479 1483 1488 1487 1488 1488 1492 1492 1488 1488 1494 1497 1500 1498 1501 1501 1508 1514 1511 1517 1525 1528 1529 1532 1535 1538 1540 1544 1547
1502 1499 1496 1494 1496 1491 1491 1488 1488 1486 1478 1462 1466 1468 1472 1475 1476 1480 1484 1486 1484 1485 1488 1483 1486 1491 1493 1493 1491 1498 1494 1496 1503 1517 1521 1511 1521 1518 1520 1528 1530 1533 1538 1540 1544
1499 1495 1494 1491 1492 1490 1489 1488 1487 1486 1487 1452 1457 1463 1466 1467 1467 1477 1481 1484 1480 1478 1486 1485 1486 1489 1490 1487 1488 1498 1496 1499 1502 1510 1510 1518 1523 1502 1510 1519 1519 1524 1530 1536 1540
1495 1492 1489 1488 1487 1486 1485 1486 1487 1482 1483 1456 1455 1459 1463 1462 1465 1472 1479 1481 1476 1478 1480 1475 1479 1480 1478 1486 1488 1497 1501 1504 1502 1502 1524 1505 1515 1506 1500 1507 1508 1516 1523 1530 1535
1489 1488 1484 1483 1485 1483 1482 1486 1480 1475 1449 1453 1452 1452 1455 1457 1461 1466 1470 1474 1474 1484 1483 1478 1480 1480 1483 1491 1495 1492 1499 1518 1526 1525 1523 1506 1515 1506 1491 1500 1500 1505 1515 1523 1530
1483 1481 1477 1477 1478 1481 1482 1479 1484 1452 1449 1446 1445 1448 1453 1452 1456 1460 1466 1470 1463 1461 1469 1481 1498 1478 1477 1478 1490 1491 1490 1503 1535 1520 1512 1513 1519 1501 1495 1497 1500 1504 1507 1516 1524
1478 1476 1472 1471 1471 1477 1479 1472 1462 1449 1447 1448 1447 1451 1451 1450 1451 1456 1459 1459 1460 1460 1468 1472 1476 1468 1473 1477 1478 1489 1500 1481 1499 1500 1514 1496 1497 1493 1494 1497 1501 1502 1504 1509 1520
1473 1471 1469 1467 1468 1475 1472 1464 1455 1455 1452 1448 1449 1442 1451 1450 1456 1455 1456 1451 1455 1458 1457 1463 1480 1468 1477 1480 1484 1482 1477 1500 1493 1523 1528 1501 1505 1496 1492 1490 1493 1498 1501 1505 1516
1471 1470 1463 1463 1466 1474 1461 1451 1453 1453 1455 1449 1444 1442 1438 1441 1446 1449 1449 1449 1452 1456 1458 1458 1469 1477 1477 1478 1476 1487 1487 1485 1482 1495 1509 1512 1496 1479 1485 1486 1489 1493 1498 1503 1510
1469 1465 1461 1460 1462 1460 1453 1449 1453 1451 1451 1449 1446 1441 1438 1433 1442 1442 1445 1445 1449 1451 1462 1458 1466 1476 1474 1467 1469 1464 1471 1476 1494 1505 1494 1502 1498 1476 1481 1484 1487 1489 1494 1499 1504
1470 1465 1461 1461 1451 1451 1452 1453 1450 1448 1447 1445 1441 1439 1438 1436 1444 1437 1440 1442 1451 1451 1452 1454 1465 1477 1473 1474 1474 1475 1471 1469 1470 1472 1495 1505 1492 1480 1484 1486 1487 1488 1491 1495 1500
1470 1457 1459 1460 1456 1451 1447 1448 1447 1449 1448 1450 1445 1440 1438 1437 1437 1440 1440 1449 1451 1451 1454 1454 1452 1463 1469 1468 1459 1474 1470 1470 1469 1483 1482 1483 1485 1476 1480 1484 1485 1487 1489 1491 1494
1471 1464 1466 1449 1455 1455 1456 1451 1447 1446 1448 1449 1443 1442 1440 1439 1437 1438 1435 1445 1450 1453 1454 1452 1461 1452 1449 1447 1449 1455 1462 1468 1471 1469 1480 1473 1479 1475 1479 1482 1483 1484 1485 1487 1489
1474 1471 1467 1463 1463 1458 1456 1453 1451 1450 1450 1446 1446 1447 1444 1442 1439 1439 1436 1437 1440 1449 1450 1452 1456 1451 1453 1452 1453 1457 1454 1459 1463 1463 1471 1474 1480 1472 1478 1479 1479 1479 1479 1481 1484
1476 1474 1473 1465 1459 1456 1456 1458 1457 1456 1454 1455 1455 1449 1443 1449 1455 1454 1454 1452 1450 1447 1446 1451 1452 1460 1461 1456 1458 1467 1456 1458 1459 1464 1468 1479 1471 1472 1474 1474 1473 1474 1474 1476 1478
Wind_Speed
18 19 19 20 20 22 24 23 21 20 16 14 13 13 11 13 14 16 16 10 12 11 7 6 6 7 6 6 3 4 5 7 8 8 10 13 12 8 9 13 6 3 15 23 29
18 18 20 21 21 22 24 24 21 20 17 14 13 13 11 11 12 18 17 12 13 13 11 11 9 8 8 4 3 8 5 9 6 7 11 8 8 10 10 12 12 16 19 27 28
19 18 19 21 22 23 25 24 22 21 18 14 13 12 10 9 8 12 16 15 15 15 11 10 8 7 6 5 5 1 11 6 6 7 12 14 11 7 6 8 9 19 27 26 26
20 20 19 21 23 24 25 25 23 21 19 15 13 11 10 8 5 4 13 21 20 15 11 9 9 10 6 8 5 7 9 11 11 11 13 14 14 17 17 13 15 23 23 23 21
20 21 20 20 22 24 25 25 23 23 15 10 9 11 11 9 11 6 12 23 22 17 12 11 10 9 8 10 8 13 12 13 12 12 15 16 16 15 19 18 22 22 19 18 16
20 22 22 21 22 24 25 22 23 14 8 7 7 11 11 12 11 8 13 24 21 18 12 10 7 6 9 11 4 11 16 16 14 15 17 17 14 13 13 17 19 18 17 15 14
21 21 23 22 21 23 24 20 20 10 7 7 1 11 9 4 6 8 17 22 18 15 13 8 7 7 12 12 14 18 16 12 13 9 16 17 14 15 15 15 16 16 15 13 12
22 21 23 22 21 21 23 19 19 10 6 4 3 5 3 8 6 12 16 16 17 12 9 8 5 8 5 17 12 12 14 11 10 14 7 8 12 11 14 14 14 14 14 12 11
22 21 22 22 21 20 20 18 19 9 7 5 2 2 6 4 8 13 16 18 17 12 11 8 6 7 11 14 12 13 12 11 13 14 2 9 14 14 14 13 14 13 13 12 12
22 22 21 22 20 19 16 18 13 9 8 6 8 5 6 11 12 14 14 17 17 15 10 10 10 10 12 14 13 15 11 12 12 14 8 5 12 14 15 14 15 14 12 12 12
23 24 19 21 18 18 12 11 8 1 6 9 0 3 10 12 13 14 16 18 17 18 13 14 12 15 17 17 11 13 16 12 10 5 10 6 12 14 16 14 14 16 14 13 13
23 24 19 20 17 14 8 5 2 8 11 12 15 11 8 16 15 18 20 18 20 17 17 10 17 17 12 7 11 12 12 11 6 6 11 8 11 12 14 16 15 15 16 15 14
23 23 21 17 18 10 9 10 7 11 7 6 12 12 16 17 22 25 24 16 20 20 17 16 19 12 12 13 15 14 15 12 13 9 11 8 10 12 14 13 15 14 15 15 16
22 22 22 15 12 5 8 7 7 2 5 11 11 11 16 20 15 24 26 17 10 18 20 13 12 14 16 16 14 14 10 13 15 14 12 16 10 18 17 16 17 20 18 18 17
22 21 22 15 17 12 6 8 8 3 5 10 14 15 22 27 24 21 24 13 19 13 10 12 15 14 14 14 10 6 8 9 12 17 7 13 9 3 16 18 20 22 22 21 20
22 20 24 16 16 12 5 4 3 7 7 8 11 15 21 21 24 28 19 12 5 13 14 12 8 11 8 6 6 13 13 7 8 7 10 12 12 12 10 18 19 24 24 23 22
22 19 23 16 7 6 4 2 7 9 4 8 14 21 23 15 19 20 21 18 11 14 14 10 14 9 19 14 11 12 15 8 9 8 10 5 7 13 2 5 13 21 27 27 25
22 20 19 16 11 17 8 7 9 6 9 3 7 20 21 19 18 23 20 18 14 14 17 16 13 14 14 12 12 17 15 6 7 9 6 3 7 6 2 4 13 14 23 28 26
21 18 16 11 11 15 14 9 9 6 3 3 10 15 18 18 11 18 20 20 18 15 8 14 12 12 14 8 10 11 10 5 1 3 8 7 6 9 8 8 10 12 17 28 26
21 17 9 10 10 18 11 13 7 4 6 3 9 17 21 20 15 19 20 21 18 16 15 9 11 14 8 10 4 8 11 9 9 6 9 6 6 3 5 7 8 14 19 25 26
13 7 7 9 13 13 12 15 12 12 8 4 4 9 17 19 21 22 20 12 19 18 14 13 12 10 10 12 15 8 11 8 5 5 7 6 3 6 2 2 4 10 18 23 29
3 5 5 15 11 16 13 11 6 9 6 8 5 8 11 17 20 19 21 18 15 12 14 18 11 12 16 5 6 15 18 16 10 11 6 7 8 4 4 3 3 5 13 21 28
7 6 4 10 8 10 11 10 10 7 6 4 5 3 2 12 14 19 17 8 13 14 11 13 11 14 12 9 5 11 11 13 16 10 7 8 3 6 4 4 5 8 13 18 24
5 3 5 10 5 6 10 12 10 4 5 5 8 7 6 8 5 12 12 8 12 15 3 10 15 18 16 18 14 18 15 17 16 12 11 11 13 10 5 7 8 10 13 17 23
3 3 2 3 6 3 4 2 10 7 2 2 6 6 6 7 9 8 10 13 10 8 8 11 12 15 20 17 14 15 18 19 20 17 15 12 7 11 8 11 12 12 11 18 23
5 5 3 1 2 6 3 3 3 2 2 4 4 3 6 8 5 5 5 5 7 9 10 6 9 9 15 12 15 14 17 17 18 12 9 9 11 8 9 13 16 19 16 17 23
7 5 4 3 1 5 2 0 2 4 3 2 6 7 6 4 9 9 8 7 5 4 9 8 7 8 14 11 10 15 14 16 12 10 10 9 8 10 12 14 17 18 18 17 19
Wind_Direction
346 342 339 341 344 341 339 337 331 323 309 294 282 276 272 268 266 258 250 229 208 204 193 195 185 208 227 250 246 259 221 113 111 125 126 140 130 102 106 113 100 129 140 156 153
341 343 336 336 339 339 337 335 331 324 310 293 279 272 264 261 264 256 230 222 206 200 188 186 194 199 214 213 201 255 92 60 13 83 122 129 107 124 131 121 100 114 127 143 154
337 339 337 334 335 337 335 332 328 323 310 292 277 266 252 247 277 244 221 199 194 186 191 203 194 214 208 193 159 118 79 129 87 90 118 119 101 102 147 98 141 145 142 149 157
336 334 337 334 332 334 333 331 327 322 309 291 276 253 226 213 227 217 196 191 188 183 195 196 198 200 195 172 146 126 77 104 98 120 125 101 99 71 66 70 119 138 143 150 159
336 331 333 334 332 331 333 333 329 323 309 291 265 231 202 215 241 222 189 185 189 182 198 195 201 191 181 134 147 114 100 105 119 121 114 108 90 94 86 99 119 132 140 150 158
333 330 329 332 332 331 335 337 336 337 342 319 267 211 191 228 225 211 191 181 184 184 195 194 203 208 142 128 156 121 120 118 118 123 121 113 117 110 107 117 125 136 142 148 153
328 331 325 329 332 331 334 335 339 335 356 11 80 175 199 187 214 190 174 184 187 186 185 188 171 217 154 117 132 134 130 137 134 138 129 121 97 101 131 132 135 141 145 145 145
323 328 325 325 330 331 330 332 332 314 321 360 70 161 236 220 196 164 161 171 176 187 180 171 160 147 142 124 144 171 162 162 163 163 161 259 116 134 146 141 142 148 152 156 158
320 324 325 321 326 331 328 332 325 295 293 287 284 236 150 173 159 166 159 162 165 172 160 154 160 141 144 167 169 183 185 199 165 193 173 272 124 147 157 155 153 166 167 172 172
319 318 323 319 323 331 325 335 324 296 278 260 247 255 199 185 164 165 169 166 163 165 169 187 190 173 187 192 193 190 218 190 189 188 210 215 115 152 165 164 164 168 177 182 183
317 312 321 315 318 329 320 347 347 316 298 251 105 277 150 157 150 165 163 162 172 176 188 203 214 209 186 211 262 195 219 195 199 162 208 202 153 161 166 174 166 168 178 186 187
315 310 315 314 310 318 298 302 340 315 295 256 236 241 188 175 165 169 167 173 180 191 200 185 221 212 230 198 224 233 211 210 135 197 219 159 175 166 176 179 181 175 178 185 183
314 310 310 314 307 300 266 287 278 330 260 228 207 204 182 180 185 175 181 193 193 196 194 200 202 153 186 195 205 206 216 205 217 183 213 173 185 192 192 189 187 199 193 191 191
313 310 309 314 311 292 303 284 316 348 271 171 195 196 170 181 199 183 186 186 197 196 194 221 140 181 197 193 214 196 222 249 195 191 208 205 234 192 194 203 200 195 200 196 190
312 309 303 312 295 290 254 293 307 235 265 136 147 156 168 186 155 183 184 197 189 181 189 184 181 186 194 192 206 90 140 163 186 212 160 189 258 107 190 208 208 207 198 202 197
308 305 297 304 287 271 248 308 223 227 237 160 152 172 173 200 170 160 185 212 203 171 214 153 174 195 173 139 159 130 126 134 192 197 222 228 219 262 188 231 218 204 206 199 198
305 297 289 279 265 224 154 214 234 240 131 174 183 172 186 180 170 174 189 196 186 183 180 163 176 148 153 119 143 180 173 178 203 202 243 89 238 259 288 194 235 206 205 199 198
306 297 281 267 248 239 237 221 253 235 234 100 203 189 193 175 183 184 185 191 217 214 183 186 174 173 185 178 180 202 204 241 211 236 231 140 241 243 340 282 221 230 210 203 199
310 304 288 249 221 222 215 214 233 247 31 239 178 199 195 182 188 190 198 202 191 217 208 205 196 149 184 160 194 173 214 302 307 258 270 236 191 267 210 230 218 223 217 200 197
318 309 255 222 190 200 232 230 247 287 326 247 231 201 200 191 202 199 193 207 201 203 240 196 211 187 155 158 166 235 184 197 218 259 254 180 255 242 181 230 217 220 211 196 196
321 289 226 235 168 188 227 218 233 260 277 275 252 209 234 197 202 195 187 185 206 194 214 222 236 162 167 208 210 182 206 230 305 317 299 249 190 117 324 162 206 213 205 198 196
299 244 289 162 193 208 231 218 205 246 239 260 275 271 222 210 203 209 215 212 182 172 200 219 209 219 211 135 279 221 214 198 224 184 229 307 301 113 180 175 217 220 202 202 201
304 268 289 190 213 202 224 236 240 228 240 281 265 246 236 204 207 210 207 185 176 193 209 183 223 216 189 188 179 222 217 227 226 247 270 269 272 123 171 220 237 232 206 202 202
303 237 181 202 288 285 212 229 207 173 240 277 289 281 234 194 212 191 191 165 192 215 130 198 227 219 218 222 217 209 223 225 234 233 241 217 273 283 298 273 253 252 235 214 206
306 82 345 189 181 262 228 327 227 205 189 257 217 246 296 223 181 190 190 149 173 170 195 212 227 226 231 250 240 228 214 219 228 241 259 286 317 293 302 295 293 275 253 221 210
332 336 339 347 281 244 174 169 253 139 315 164 278 320 254 250 347 232 235 211 188 170 181 209 233 214 230 227 229 235 236 212 225 234 246 262 268 301 293 282 277 269 259 236 221
353 329 302 91 269 237 93 210 80 322 124 56 341 300 217 64 324 301 295 294 302 293 185 197 192 209 218 195 212 229 202 205 202 215 233 242 292 324 302 292 285 282 266 248 231